[[{"header":{"parameterUnit":"m.s-1","parameterCategory":1,"la1":30.2991,"la2":30.254,"lo1":-89.0895,"lo2":-89.0444,"dy":0.0017,"dx":0.0017,"nx":28,"ny":28,"refTime":"2024-03-14T09:00:00:Z","depth":0,"parameterNumber":2,"parameterNumberName":"U-component_of_WINDS"},"data":[0,0,0,0,0,0,0,0,0,0,0,0,0,0,0,0,0,0,0,0,0,0,0,0,0,0,0,0,0,0,0,0,0,0,0,0,0,0,0,0,0,0,0,0,0,0,0,0,0,0,0,0,0,0,0,0,0,0,-5.5587,-5.5588,0,-5.5699,-5.57,-5.5702,-5.5676,-5.5674,-5.5671,-5.5669,-5.5783,-5.5787,-5.5792,0,0,0,0,0,0,0,0,0,0,0,0,0,-5.535,-5.5355,-5.5587,-5.5588,-5.559,-5.5699,-5.57,-5.5702,-5.5676,-5.5673,-5.5671,-5.5668,-5.5781,-5.5787,-5.5793,0,0,0,0,0,0,0,0,0,0,0,0,0,-5.5457,-5.5356,-5.5587,-5.559,-5.5591,-5.5698,-5.57,-5.5702,-5.5677,-5.5673,-5.567,-5.5667,-5.5779,-5.5786,-5.5794,-5.5904,0,0,-5.5816,-5.582,0,0,0,0,0,0,0,0,-5.5451,-5.5466,-5.5588,-5.559,-5.5592,-5.567,-5.5658,-5.577,-5.5677,-5.5644,-5.5669,-5.5666,-5.5748,-5.5757,-5.5785,-5.5909,-5.5914,-5.5817,-5.5822,-5.5825,-5.5827,0,0,0,0,0,0,0,-5.5443,-5.5461,-5.5631,-5.559,-5.5592,-5.5586,-5.5597,-5.5679,-5.5712,-5.5647,-5.5645,-5.5659,-5.5748,-5.5778,-5.5788,-5.5915,-5.5817,-5.5824,-5.5828,-5.5831,-5.6135,-5.6139,0,0,0,0,0,0,-5.5435,-5.5455,-5.5628,-5.5635,-5.5512,-5.5593,-5.5606,-5.5648,-5.5711,-5.5718,-5.5662,-5.5657,-5.5767,-5.5779,-5.5792,-5.5924,-5.5825,-5.5832,-5.5836,-5.6132,-5.6136,-5.614,0,0,0,0,0,0,-5.543,-5.545,-5.5623,-5.5544,-5.5566,-5.56,-5.5648,-5.5652,-5.5682,-5.5723,-5.5728,-5.5686,-5.5765,-5.5781,-5.5876,-5.5927,-5.5835,-5.5842,-5.6128,-5.6133,-5.6138,-5.6189,0,0,0,0,0,0,-5.5423,-5.5449,-5.5491,-5.5545,-5.557,-5.5706,-5.5651,-5.5657,-5.5695,-5.5691,-5.5747,-5.5754,-5.5764,-5.5865,-5.5884,-5.5936,-5.5848,-5.6123,-5.613,-5.6136,-5.6183,-5.6196,-5.6207,0,0,0,0,0,-5.5415,-5.55,-5.5493,-5.5514,-5.5623,-5.5709,-5.5723,-5.5733,-5.57,-5.5742,-5.5768,-5.5752,-5.592,-5.5875,-5.5896,-5.5951,-5.612,-5.6128,-5.6136,-5.6178,-5.6193,-5.6206,0,0,0,0,0,0,-5.5449,-5.5507,-5.55,-5.5606,-5.5653,-5.5704,-5.5757,-5.5749,-5.5806,-5.5799,-5.5809,-5.5822,-5.5919,-5.5945,-5.5894,-5.6061,-5.6015,-5.6028,-5.604,-5.6055,-5.6066,-5.6056,-5.5854,0,0,0,0,0,-5.547,-5.5534,-5.5582,-5.5671,-5.5695,-5.5723,-5.576,-5.5764,-5.5813,-5.5832,-5.5865,-5.5913,-5.5976,-5.6018,-5.6078,-5.6189,-5.62,-5.6237,-5.6249,-5.6258,-5.6268,-5.6327,-5.6344,-5.6167,-5.6167,-5.6166,0,0,-5.5511,-5.5551,-5.5591,-5.5679,-5.5715,-5.5782,-5.5739,-5.5811,-5.586,-5.5843,-5.5934,-5.5961,-5.6015,-5.6118,-5.6165,-5.6142,-5.632,-5.6269,-5.6276,-5.628,-5.6337,-5.6354,-5.6369,-5.6172,-5.6171,-5.617,0,0,-5.562,-5.5658,-5.5736,-5.5774,-5.5831,-5.5849,-5.5868,-5.5922,-5.5939,-5.6032,-5.602,-5.608,-5.6189,-5.6227,-5.6261,-5.6389,-5.6376,-5.6409,-5.6469,-5.6527,-5.6541,-5.6553,-5.6597,-5.6613,-5.6419,-5.642,-5.642,0,-5.5664,-5.5764,-5.5777,-5.585,-5.5889,-5.5879,-5.5957,-5.5994,-5.6067,-5.6094,-5.6069,-5.6207,-5.6242,-5.6354,-5.6385,-5.6414,-5.6435,-5.64,-5.6538,-5.6551,-5.6562,-5.6604,-5.6621,-5.6423,-5.6423,-5.6422,-5.6422,0,-5.5815,-5.5885,-5.5941,-5.6013,-5.6058,-5.6134,-5.6158,-5.6203,-5.6205,-5.6226,-5.632,-5.6364,-5.6433,-5.646,-5.6462,-5.6573,-5.6557,-5.6536,-5.6488,-5.6582,-5.6622,-5.6638,-5.6428,-5.6427,-5.6426,-5.6425,0,0,-5.5944,-5.6025,-5.6045,-5.6078,-5.6141,-5.6195,-5.6272,-5.634,-5.6378,-5.643,-5.6493,-5.6588,-5.6568,-5.6607,-5.6614,-5.6666,-5.6762,-5.6637,-5.6639,-5.6657,-5.6885,-5.6899,-5.6917,-5.6756,-5.6759,-5.6761,-5.688,0,-5.6057,-5.6191,-5.6206,-5.6325,-5.6389,-5.6382,-5.6448,-5.6495,-5.6518,-5.6575,-5.6601,-5.6667,-5.6637,-5.6661,-5.6712,-5.674,-5.6808,-5.6732,-5.6813,-5.6816,-5.6796,-5.6938,-5.6952,-5.7061,-5.6895,-5.6898,-5.69,0,-5.6205,-5.6263,-5.6388,-5.6444,-5.6472,-5.6531,-5.6595,-5.6651,-5.6704,-5.6718,-5.6763,-5.6763,-5.6842,-5.6795,-5.6903,-5.6851,-5.6886,-5.6906,-5.691,-5.6915,-5.6861,-5.6944,-5.7097,-5.7112,-5.6925,-5.6923,-5.6921,0,-5.6284,-5.6394,-5.6483,-5.6511,-5.6579,-5.6621,-5.6651,-5.6701,-5.6742,-5.6799,-5.6825,-5.6891,-5.6926,-5.6977,-5.6996,-5.696,-5.7103,-5.7058,-5.7114,-5.7114,-5.7141,-5.7138,-5.7298,-5.717,-5.7169,-5.7169,-5.7169,0,-5.6406,-5.6483,-5.6519,-5.6573,-5.6659,-5.6677,-5.6761,-5.679,-5.6835,-5.6894,-5.6894,-5.695,-5.6973,-5.7033,-5.7049,-5.7135,-5.7152,-5.7164,-5.7166,-5.7162,-5.716,-5.7182,-5.7173,-5.7173,-5.7172,-5.7171,-5.7171,0,-5.6507,-5.6534,-5.6631,-5.6688,-5.6705,-5.6765,-5.6814,-5.6867,-5.6891,-5.6967,-5.6985,-5.7023,-5.7093,-5.7118,-5.7204,-5.7215,-5.7314,-5.7312,-5.7296,-5.7296,-5.735,-5.7344,-5.7527,-5.7551,-5.7409,-5.7411,-5.7412,0,-5.6581,-5.664,-5.6704,-5.6744,-5.6776,-5.6842,-5.6884,-5.6905,-5.6948,-5.7014,-5.7059,-5.713,-5.7187,-5.7301,-5.7335,-5.7401,-5.7399,-5.7459,-5.7408,-5.7402,-5.7396,-5.7391,-5.7396,-5.7467,-5.7468,-5.7469,-5.747,0,-5.6709,-5.672,-5.6781,-5.6847,-5.6898,-5.6951,-5.7002,-5.7035,-5.7064,-5.7114,-5.7186,-5.7231,-5.732,-5.739,-5.7458,-5.7489,-5.7484,-5.7487,-5.7503,-5.7497,-5.7484,-5.7489,-5.7318,-5.7481,-5.748,-5.7479,-5.7479,-5.7478,-5.6796,-5.6848,-5.6902,-5.697,-5.7011,-5.706,-5.7112,-5.7144,-5.7205,-5.7279,-5.7288,-5.7366,-5.742,-5.7511,-5.7546,-5.7607,-5.759,-5.7614,-5.762,-5.7624,-5.7627,-5.7478,-5.762,-5.762,-5.762,-5.7619,-5.7619,0,-5.6922,-5.6957,-5.702,-5.7092,-5.7146,-5.714,-5.7197,-5.7242,-5.7311,-5.7361,-5.7418,-5.7502,-5.7571,-5.7612,-5.7681,-5.7722,-5.7722,-5.774,-5.7735,-5.7742,-5.7639,-5.7617,-5.7739,-5.7739,-5.7739,-5.7739,-5.7739,-5.7739,-5.6993,-5.708,-5.7098,-5.7206,-5.7241,-5.7318,-5.7351,-5.7396,-5.7436,-5.753,-5.7587,-5.7615,-5.7662,-5.7735,-5.7797,-5.7808,-5.7832,-5.7851,-5.7859,-5.7762,-5.7749,-5.7737,-5.7716,-5.7857,-5.7857,-5.7956,-5.7957,-5.7958]},{"header":{"parameterUnit":"m.s-1","parameterCategory":1,"la1":30.2991,"la2":30.254,"lo1":-89.0895,"lo2":-89.0444,"dy":0.0017,"dx":0.0017,"nx":28,"ny":28,"refTime":"2024-03-14T09:00:00:Z","depth":0,"parameterNumber":3,"parameterNumberName":"V-component_of_WINDS"},"data":[0,0,0,0,0,0,0,0,0,0,0,0,0,0,0,0,0,0,0,0,0,0,0,0,0,0,0,0,0,0,0,0,0,0,0,0,0,0,0,0,0,0,0,0,0,0,0,0,0,0,0,0,0,0,0,0,0,0,2.3281,2.3281,0,2.333,2.333,2.3331,2.3342,2.3341,2.3341,2.3341,2.3389,2.339,2.3392,0,0,0,0,0,0,0,0,0,0,0,0,0,2.3196,2.3198,2.3281,2.3281,2.3282,2.333,2.333,2.3331,2.3342,2.3341,2.3341,2.334,2.3388,2.339,2.3392,0,0,0,0,0,0,0,0,0,0,0,0,0,2.3238,2.3198,2.3281,2.3293,2.3295,2.333,2.3331,2.3331,2.3342,2.3341,2.3341,2.334,2.3387,2.339,2.3392,2.3418,0,0,2.3399,2.34,0,0,0,0,0,0,0,0,2.3235,2.3241,2.3291,2.3292,2.3294,2.3329,2.3318,2.336,2.3342,2.3324,2.3341,2.334,2.3369,2.3373,2.3383,2.342,2.3422,2.34,2.3401,2.3402,2.3403,0,0,0,0,0,0,0,2.3233,2.3239,2.33,2.3291,2.3294,2.3296,2.3302,2.3326,2.3349,2.3325,2.3326,2.3332,2.337,2.3381,2.3384,2.3423,2.34,2.3402,2.3403,2.3404,2.3486,2.3487,0,0,0,0,0,0,2.3228,2.3236,2.3299,2.3302,2.3263,2.3298,2.3304,2.3318,2.3348,2.3353,2.3332,2.3332,2.3377,2.3382,2.3386,2.342,2.3402,2.3404,2.3406,2.3485,2.3486,2.3487,0,0,0,0,0,0,2.3226,2.3233,2.3297,2.3269,2.3278,2.33,2.3316,2.332,2.3331,2.3354,2.3358,2.334,2.3377,2.3383,2.3411,2.3422,2.3405,2.3408,2.3484,2.3485,2.3486,2.3487,0,0,0,0,0,0,2.3223,2.3232,2.3242,2.327,2.3279,2.332,2.3317,2.3321,2.3335,2.3335,2.3362,2.3365,2.3377,2.3407,2.3413,2.3425,2.341,2.3483,2.3485,2.3486,2.3486,2.3488,2.349,0,0,0,0,0,2.322,2.3239,2.3242,2.325,2.3292,2.3321,2.3326,2.334,2.3336,2.3346,2.3362,2.3365,2.342,2.341,2.3417,2.3429,2.3483,2.3484,2.3486,2.3485,2.3488,2.349,0,0,0,0,0,0,2.321,2.3243,2.3247,2.3275,2.3295,2.3322,2.3335,2.3341,2.3362,2.3361,2.3377,2.3382,2.341,2.3422,2.3411,2.3457,2.3451,2.3454,2.3448,2.3451,2.3452,2.3449,2.3412,0,0,0,0,0,2.3212,2.3233,2.326,2.3282,2.3292,2.3312,2.3325,2.3334,2.3356,2.3364,2.3381,2.3401,2.3424,2.3438,2.3459,2.3488,2.3495,2.3501,2.3502,2.3504,2.3506,2.3525,2.3529,2.3492,2.3492,2.3492,0,0,2.3214,2.3235,2.3247,2.3281,2.3298,2.332,2.3319,2.3342,2.3359,2.3367,2.3395,2.3409,2.3432,2.3462,2.3476,2.3473,2.3518,2.3506,2.3507,2.3509,2.3527,2.3531,2.3534,2.3493,2.3493,2.3493,0,0,2.3231,2.3247,2.3269,2.3287,2.3313,2.3327,2.3332,2.3359,2.3369,2.3398,2.3406,2.3426,2.3463,2.3481,2.3494,2.3521,2.3525,2.3527,2.3537,2.3555,2.3558,2.3561,2.3572,2.3576,2.353,2.353,2.353,0,2.323,2.3264,2.3279,2.3303,2.3319,2.3329,2.3352,2.3368,2.3399,2.341,2.3407,2.3457,2.3473,2.3508,2.3515,2.3525,2.3533,2.3524,2.3557,2.3559,2.3562,2.3573,2.3577,2.353,2.353,2.353,2.353,0,2.3263,2.3287,2.3302,2.3334,2.3351,2.3374,2.3394,2.3409,2.3418,2.3432,2.3462,2.3483,2.351,2.3519,2.3526,2.3556,2.3554,2.3553,2.3548,2.3566,2.3576,2.3581,2.353,2.353,2.353,2.353,0,0,2.3273,2.3316,2.3321,2.3337,2.3369,2.3387,2.3412,2.344,2.3454,2.3476,2.3497,2.353,2.3531,2.3547,2.3556,2.3573,2.3596,2.3571,2.3571,2.3576,2.3632,2.3633,2.3638,2.3599,2.3599,2.36,2.3631,0,2.3294,2.3339,2.3355,2.3392,2.3415,2.3427,2.3449,2.347,2.3485,2.3507,2.3523,2.3547,2.3545,2.3555,2.3572,2.3589,2.3607,2.3587,2.362,2.3621,2.3615,2.3643,2.3644,2.3672,2.3635,2.3636,2.3636,0,2.3324,2.3349,2.3389,2.342,2.3431,2.345,2.3478,2.3499,2.3525,2.3535,2.3554,2.3564,2.3591,2.3583,2.3622,2.3608,2.3622,2.3633,2.3635,2.3639,2.363,2.365,2.3681,2.3685,2.3643,2.3642,2.3642,0,2.3329,2.3372,2.3403,2.3416,2.3453,2.3466,2.3482,2.3508,2.3525,2.355,2.3561,2.3589,2.3604,2.3625,2.3642,2.3635,2.368,2.3673,2.369,2.3689,2.3699,2.3698,2.3734,2.3706,2.3706,2.3706,2.3706,0,2.3351,2.3375,2.3406,2.3424,2.3453,2.3472,2.3499,2.3516,2.3539,2.3562,2.3573,2.3594,2.3615,2.3639,2.3652,2.3684,2.369,2.3699,2.3703,2.3699,2.3698,2.3709,2.3708,2.3707,2.3707,2.3707,2.3706,0,2.3361,2.3382,2.3417,2.345,2.3459,2.3479,2.3508,2.3527,2.3543,2.3572,2.358,2.3605,2.3635,2.3654,2.3691,2.37,2.3735,2.3737,2.3726,2.3728,2.3744,2.3743,2.379,2.3798,2.3763,2.3763,2.3763,0,2.3374,2.3394,2.3431,2.3448,2.3464,2.349,2.3509,2.3529,2.3548,2.3581,2.3596,2.3627,2.3652,2.3699,2.3721,2.375,2.3754,2.3768,2.3758,2.3755,2.3756,2.3755,2.3758,2.377,2.377,2.377,2.377,0,2.3396,2.3407,2.3433,2.3464,2.3486,2.3511,2.3536,2.3549,2.3574,2.3595,2.3626,2.3646,2.3686,2.3716,2.3748,2.3765,2.3772,2.3774,2.3779,2.3776,2.377,2.3776,2.3732,2.3772,2.3772,2.3772,2.3772,2.3772,2.3409,2.3428,2.3458,2.3488,2.351,2.3534,2.3555,2.3575,2.3602,2.3637,2.3647,2.368,2.3708,2.3752,2.377,2.3796,2.3795,2.3802,2.3804,2.3806,2.3808,2.3765,2.3802,2.3802,2.3802,2.3802,2.3802,0,2.3433,2.3454,2.3481,2.3518,2.3542,2.3548,2.3578,2.3597,2.3627,2.3653,2.3679,2.3717,2.3747,2.3773,2.3805,2.3822,2.3826,2.383,2.3829,2.3833,2.3806,2.3799,2.3826,2.3826,2.3826,2.3826,2.3826,2.3826,2.3448,2.3482,2.3496,2.3542,2.3563,2.3596,2.3613,2.3636,2.3657,2.3699,2.3726,2.3743,2.377,2.3805,2.3834,2.3841,2.3853,2.3856,2.3863,2.3837,2.3835,2.3832,2.3826,2.3858,2.3858,2.3889,2.3889,2.3889]}]]